LAPAN-A2 (40931 NORAD) Tracking and Keplerian Element Data

This shows tracking and keplerian element data for the satellite.

Feedback or suggestion? Click here.




ElementValue
Catalog40931
NameLAPAN-A2
Epoch Orbit32414
Epoch Day268.70499788
Epoch Year2021
RAAN257.404
Inclination5.9981
Eccentricity0.0013276
Argument of Perigee20.1675
Mean Anonmoly339.93
Mean Motion14.76690076
Decay Rate6.55E-06
L11 40931U 15052B 21268.70499788 .00000655 00000-0 21209-5 0 9996
L22 40931 5.9981 257.4040 0013276 20.1675 339.9300 14.76690076324140

Live tracking and technical data element details for LAPAN-A2 (NORAD 40931). LAPAN-A2 can be tracked NOW for your location showing map with azimuth and elevation plus other details from your city location.

Track the satellite on the map from your city or location and see movement details for azimuth, elevation, latitude, longitude, range, height, and movement on the map or in text.







IsCatalogInMostPopularTable: catalog: 40931, numindb: 637
Update: records affected: 1



GetName: 40931 LAPAN-A2

Hit Count: updated at: Mon, 27 Sep 2021 01:08:20 GMT